Battle Mountain, Nevada, United States (89820)
Lat: 40.64N, Lon: 116.93W
Wx Zone: NVZ036
Local Info
Past Weather Observations for Wednesday, April 22, 2015

NOTE: This archive is for the closest National Weather Service station to Battle Mountain. Information may differ from the station used for current weather conditions.

Click here for Long-term Archive

Time Weather Temperature Dewpoint Humidity Pressure Winds Precip Visibility
23:56
Fair
46°F / 8°C 43°F / 6°C 87% 29.95 in
(1014 mb)
S 8.1 mph
(S 13 kph)
- 10SM
22:56
Mostly Cloudy
46°F / 8°C 43°F / 6°C 87% 29.92 in
(1013 mb)
S 15 mph
(S 24 kph)
0.00 in
(0.00 mm)
10SM
21:56
Overcast
Light Rain
48°F / 9°C 45°F / 7°C 87% 29.92 in
(1013 mb)
ESE 13.8 mph
(ESE 22 kph)
0.31 in
(7.87 mm)
8SM
21:46
Overcast
Light Rain
48°F / 9°C 43°F / 6°C 82% 29.92 in
(1013 mb)
E 17.3 mph
(E 28 kph)
0.31 in
(7.87 mm)
4SM
20:56
Overcast
Heavy Rain
48°F / 9°C 46°F / 8°C 94% 29.95 in
(1014 mb)
NE 6.9 mph
(NE 11 kph)
0.19 in
(4.83 mm)
2SM
20:38
Overcast
Rain
48°F / 9°C 46°F / 8°C 94% 29.95 in
(1014 mb)
ENE 6.9 mph
(ENE 11 kph)
0.10 in
(2.54 mm)
4SM
20:29
Overcast
Rain
48°F / 9°C 46°F / 8°C 94% 29.95 in
(1014 mb)
NNE 5.8 mph
(NNE 9 kph)
0.08 in
(2.03 mm)
2 1/2SM
19:56
Overcast
Light Rain
52°F / 11°C 45°F / 7°C 77% 29.92 in
(1013 mb)
Variable 4.6 mph
(Variable 7 kph)
0.06 in
(1.52 mm)
8SM
19:07
Overcast
Light Rain
52°F / 11°C 45°F / 7°C 77% 29.89 in
(1012 mb)
NNE 8.1 mph
(NNE 13 kph)
0.01 in
(0.25 mm)
6SM
18:56
Overcast
Thunder Storms
52°F / 11°C 46°F / 8°C 82% 29.86 in
(1011 mb)
SE 8.1 mph
(SE 13 kph)
0.05 in
(1.27 mm)
4SM
18:26
Overcast
Thunder Storms
52°F / 11°C 45°F / 7°C 77% 29.86 in
(1011 mb)
S 9.2 mph
(S 15 kph)
0.01 in
(0.25 mm)
10SM
17:56
Overcast
Thunder Storms
54°F / 12°C 43°F / 6°C 67% 29.83 in
(1010 mb)
S 15 mph
(S 24 kph)
0.01 in
(0.25 mm)
10SM
17:34
Overcast
Thunder Storms
54°F / 12°C 45°F / 7°C 72% 29.83 in
(1010 mb)
SE 16.1 mph
(SE 26 kph)
0.01 in
(0.25 mm)
8SM
16:56
Overcast
Thunder Storms
64°F / 18°C 37°F / 3°C 37% 29.8 in
(1009 mb)
NE 11.5 mph
(NE 19 kph)
- 9SM
16:54
Overcast
Thunder Storms
64°F / 18°C 36°F / 2°C 34% 29.8 in
(1009 mb)
NE 9.2 mph
(NE 15 kph)
- 10SM
16:27
Partly Cloudy
64°F / 18°C 36°F / 2°C 34% 29.8 in
(1009 mb)
NNW 17.3 mph
(NNW 28 kph)
- 10SM
16:12
Partly Cloudy
Thunder Storms
66°F / 19°C 34°F / 1°C 30% 29.77 in
(1008 mb)
NNW 19.6 mph
(NNW 32 kph)
- 9SM
15:56
Mostly Cloudy
70°F / 21°C 30°F / -1°C 23% 29.77 in
(1008 mb)
NNW 12.7 mph
(NNW 20 kph)
- 10SM
14:56
Mostly Cloudy
70°F / 21°C 30°F / -1°C 23% 29.8 in
(1009 mb)
NW 10.4 mph
(NW 17 kph)
- 10SM
13:56
Clear
72°F / 22°C 30°F / -1°C 22% 29.8 in
(1009 mb)
N 6.9 mph
(N 11 kph)
- 10SM
12:56
Clear
70°F / 21°C 30°F / -1°C 23% 29.83 in
(1010 mb)
Variable 6.9 mph
(Variable 11 kph)
- 10SM
11:56
Clear
70°F / 21°C 27°F / -3°C 20% 29.86 in
(1011 mb)
N 9.2 mph
(N 15 kph)
- 10SM
10:56
Mostly Cloudy
64°F / 18°C 30°F / -1°C 28% 29.89 in
(1012 mb)
Calm - 10SM
09:56
Partly Cloudy
61°F / 16°C 34°F / 1°C 36% 29.89 in
(1012 mb)
Variable 3.5 mph
(Variable 6 kph)
- 10SM
08:56
Partly Cloudy
55°F / 13°C 34°F / 1°C 44% 29.92 in
(1013 mb)
Calm - 10SM
07:56
Clear
52°F / 11°C 34°F / 1°C 50% 29.89 in
(1012 mb)
NNW 4.6 mph
(NNW 7 kph)
- 10SM
06:56
Clear
54°F / 12°C 34°F / 1°C 47% 29.89 in
(1012 mb)
WNW 5.8 mph
(WNW 9 kph)
- 10SM
05:56
Clear
48°F / 9°C 34°F / 1°C 58% 29.89 in
(1012 mb)
Calm - 10SM
04:56
Clear
41°F / 5°C 30°F / -1°C 66% 29.86 in
(1011 mb)
Calm - 10SM
03:56
Clear
48°F / 9°C 34°F / 1°C 58% 29.83 in
(1010 mb)
NW 3.5 mph
(NW 6 kph)
- 10SM
02:56
Clear
43°F / 6°C 30°F / -1°C 61% 29.83 in
(1010 mb)
SSW 5.8 mph
(SSW 9 kph)
- 10SM
01:56
Clear
46°F / 8°C 30°F / -1°C 53% 29.83 in
(1010 mb)
Variable 3.5 mph
(Variable 6 kph)
- 10SM
00:56
Clear
52°F / 11°C 30°F / -1°C 44% 29.83 in
(1010 mb)
SSW 4.6 mph
(SSW 7 kph)
- 10SM
Time Weather Temperature Dewpoint Humidity Pressure Winds Precip Visibility


Weather for websites

WeatherForYou.com, LLC is not responsible for any damages or problems caused by this service. Current weather conditions are obtained from the closest station including government and personal stations which may have varying degrees of accuracy. Weather forecasts are derived from the NOAA NDFD. Like all things, this site belongs to Jesus Christ... He just trusts us to maintain it. If you have any questions or comments email webmaster@weatherforyou.com

Copyright © 2015, WeatherForYou.com LLC. All rights reserved.